| time (UTC) | temp F | wind direction | speed knots | gust knots | rain 1hr in | rain 24hr in | rain mn in | humidity % | barometer mb |
| 20260507040054 | 49 | 143 | 0.9 | 3.5 | 0.00 | 0.19 | 0.00 | 89 | 1007.4 |
| 20260507034551 | 50 | 0 | 0.0 | 2.6 | 0.00 | 0.19 | 0.19 | 90 | 1007.0 |
| 20260507033051 | 51 | 0 | 0.0 | 1.7 | 0.00 | 0.19 | 0.19 | 91 | 1006.9 |
| 20260507031543 | 51 | 0 | 0.0 | 0.0 | 0.01 | 0.19 | 0.19 | 91 | 1006.7 |
| 20260507030043 | 52 | 0 | 0.0 | 0.0 | 0.01 | 0.19 | 0.19 | 91 | 1006.6 |
| 20260507024541 | 53 | 0 | 0.0 | 1.7 | 0.02 | 0.19 | 0.19 | 90 | 1006.5 |
| 20260507023050 | 54 | 131 | 0.0 | 4.3 | 0.02 | 0.19 | 0.19 | 89 | 1006.7 |
| 20260507021547 | 55 | 136 | 0.0 | 3.5 | 0.01 | 0.18 | 0.18 | 90 | 1006.9 |
| 20260507020114 | 56 | 0 | 0.9 | 6.1 | 0.01 | 0.18 | 0.18 | 92 | 1006.0 |
| 20260507014553 | 57 | 0 | 0.0 | 2.6 | 0.00 | 0.17 | 0.17 | 91 | 1005.8 |
| 20260507013054 | 57 | 0 | 0.0 | 3.5 | 0.00 | 0.17 | 0.17 | 92 | 1005.7 |
| 20260507011547 | 58 | 346 | 0.0 | 3.5 | 0.00 | 0.17 | 0.17 | 93 | 1005.4 |
| 20260507010050 | 58 | 36 | 4.3 | 9.6 | 0.00 | 0.17 | 0.17 | 92 | 1005.3 |
| 20260507004553 | 58 | 76 | 2.6 | 8.7 | 0.00 | 0.18 | 0.17 | 92 | 1005.3 |
| 20260507003051 | 58 | 18 | 0.9 | 4.3 | 0.00 | 0.18 | 0.17 | 92 | 1005.0 |
| 20260507001545 | 58 | 359 | 0.9 | 3.5 | 0.00 | 0.18 | 0.17 | 92 | 1004.8 |
| 20260507000050 | 58 | 29 | 0.9 | 3.5 | 0.00 | 0.18 | 0.17 | 92 | 1004.8 |
| 20260506234551 | 58 | 40 | 0.9 | 4.3 | 0.00 | 0.18 | 0.17 | 92 | 1004.7 |
| 20260506233101 | 58 | 20 | 0.9 | 3.5 | 0.00 | 0.18 | 0.17 | 92 | 1004.4 |
| 20260506231553 | 58 | 39 | 0.9 | 3.5 | 0.00 | 0.18 | 0.17 | 92 | 1004.5 |
| 20260506230047 | 58 | 0 | 1.7 | 8.7 | 0.00 | 0.18 | 0.17 | 92 | 1004.7 |
| 20260506224541 | 58 | 29 | 1.7 | 5.2 | 0.00 | 0.18 | 0.17 | 92 | 1004.6 |
| 20260506223049 | 58 | 22 | 3.5 | 7.0 | 0.00 | 0.18 | 0.17 | 91 | 1004.8 |
| 20260506221549 | 58 | 307 | 0.0 | 6.1 | 0.00 | 0.18 | 0.17 | 91 | 1004.7 |
| 20260506220046 | 59 | 63 | 2.6 | 9.6 | 0.00 | 0.18 | 0.17 | 90 | 1004.8 |
| 20260506214550 | 59 | 30 | 5.2 | 12.2 | 0.00 | 0.18 | 0.17 | 90 | 1004.8 |
| 20260506213057 | 59 | 346 | 4.3 | 10.4 | 0.01 | 0.18 | 0.17 | 90 | 1004.8 |
| 20260506211543 | 59 | 300 | 1.7 | 9.6 | 0.01 | 0.18 | 0.17 | 91 | 1004.7 |
| 20260506210048 | 59 | 16 | 2.6 | 9.6 | 0.01 | 0.18 | 0.17 | 91 | 1004.7 |
| 20260506204541 | 59 | 0 | 0.9 | 11.3 | 0.02 | 0.18 | 0.17 | 92 | 1004.8 |
| 20260506203047 | 59 | 36 | 3.5 | 7.8 | 0.03 | 0.17 | 0.16 | 92 | 1004.9 |
| 20260506201546 | 59 | 11 | 3.5 | 7.0 | 0.05 | 0.17 | 0.16 | 92 | 1005.1 |
| 20260506200042 | 60 | 46 | 1.7 | 6.1 | 0.06 | 0.17 | 0.16 | 92 | 1005.5 |
| 20260506194549 | 60 | 5 | 2.6 | 7.0 | 0.05 | 0.16 | 0.15 | 92 | 1005.5 |
| 20260506193046 | 60 | 21 | 2.6 | 6.1 | 0.04 | 0.14 | 0.13 | 91 | 1005.7 |
| 20260506191546 | 60 | 32 | 0.9 | 7.8 | 0.03 | 0.12 | 0.11 | 91 | 1005.7 |
| 20260506190047 | 61 | 352 | 0.9 | 5.2 | 0.02 | 0.11 | 0.10 | 91 | 1005.8 |
| 20260506184551 | 61 | 333 | 2.6 | 6.1 | 0.04 | 0.11 | 0.10 | 91 | 1005.5 |
| 20260506183052 | 61 | 0 | 0.0 | 0.9 | 0.06 | 0.10 | 0.09 | 91 | 1005.9 |
| 20260506181609 | 60 | 32 | 0.0 | 2.6 | 0.07 | 0.09 | 0.08 | 91 | 1006.4 |
| 20260506180048 | 60 | 35 | 0.9 | 1.7 | 0.08 | 0.09 | 0.08 | 90 | 1006.9 |
| 20260506174545 | 60 | 37 | 0.0 | 0.9 | 0.06 | 0.07 | 0.06 | 89 | 1006.8 |
| 20260506173058 | 61 | 0 | 0.0 | 2.6 | 0.03 | 0.04 | 0.03 | 86 | 1007.3 |
| 20260506171544 | 62 | 52 | 0.9 | 4.3 | 0.01 | 0.02 | 0.01 | 83 | 1007.3 |
| 20260506170042 | 63 | 4 | 2.6 | 10.4 | 0.00 | 0.01 | 0.00 | 78 | 1007.3 |
| 20260506164548 | 64 | 26 | 4.3 | 13.0 | 0.00 | 0.01 | 0.00 | 75 | 1007.2 |
| 20260506163047 | 64 | 27 | 6.1 | 14.8 | 0.00 | 0.01 | 0.00 | 73 | 1007.2 |
| 20260506161548 | 64 | 352 | 3.5 | 10.4 | 0.00 | 0.01 | 0.00 | 73 | 1007.5 |
| 20260506160052 | 64 | 27 | 3.5 | 12.2 | 0.00 | 0.01 | 0.00 | 73 | 1007.6 |
| 20260506154547 | 65 | 359 | 4.3 | 14.8 | 0.00 | 0.01 | 0.00 | 72 | 1007.9 |
| 20260506153104 | 64 | 25 | 3.5 | 10.4 | 0.00 | 0.01 | 0.00 | 73 | 1008.0 |
| 20260506151544 | 64 | 1 | 3.5 | 11.3 | 0.00 | 0.01 | 0.00 | 73 | 1008.4 |
| 20260506150057 | 65 | 355 | 4.3 | 11.3 | 0.00 | 0.01 | 0.00 | 72 | 1008.3 |
| 20260506144555 | 66 | 360 | 7.0 | 13.9 | 0.00 | 0.01 | 0.00 | 70 | 1008.3 |
| 20260506143045 | 65 | 51 | 3.5 | 10.4 | 0.00 | 0.01 | 0.00 | 71 | 1008.2 |
| 20260506141543 | 65 | 10 | 3.5 | 13.9 | 0.00 | 0.01 | 0.00 | 71 | 1008.1 |
| 20260506140051 | 64 | 338 | 3.5 | 11.3 | 0.00 | 0.01 | 0.00 | 73 | 1007.9 |
| 20260506134540 | 64 | 350 | 3.5 | 10.4 | 0.00 | 0.01 | 0.00 | 73 | 1007.6 |
| 20260506133049 | 64 | 10 | 3.5 | 9.6 | 0.00 | 0.01 | 0.00 | 74 | 1007.9 |
| 20260506131553 | 64 | 23 | 2.6 | 5.2 | 0.00 | 0.01 | 0.00 | 76 | 1008.3 |
| 20260506130047 | 63 | 3 | 3.5 | 7.0 | 0.00 | 0.01 | 0.00 | 77 | 1008.3 |
| 20260506124546 | 62 | 335 | 4.3 | 9.6 | 0.00 | 0.01 | 0.00 | 77 | 1008.4 |
| 20260506123041 | 62 | 310 | 4.3 | 15.6 | 0.00 | 0.01 | 0.00 | 78 | 1008.6 |
| 20260506121539 | 61 | 52 | 3.5 | 8.7 | 0.00 | 0.01 | 0.00 | 79 | 1008.4 |
| 20260506120048 | 61 | 46 | 1.7 | 4.3 | 0.00 | 0.01 | 0.00 | 79 | 1008.5 |
| 20260506114547 | 60 | 338 | 2.6 | 7.0 | 0.00 | 0.01 | 0.00 | 79 | 1008.8 |
| 20260506113046 | 60 | 326 | 2.6 | 8.7 | 0.00 | 0.01 | 0.00 | 80 | 1008.7 |
| 20260506111545 | 60 | 8 | 2.6 | 7.0 | 0.00 | 0.01 | 0.00 | 80 | 1008.8 |
| 20260506110041 | 59 | 341 | 1.7 | 7.0 | 0.00 | 0.01 | 0.00 | 80 | 1008.9 |
| 20260506104542 | 59 | 17 | 2.6 | 6.1 | 0.00 | 0.01 | 0.00 | 81 | 1008.9 |
| 20260506103053 | 58 | 39 | 1.7 | 4.3 | 0.00 | 0.01 | 0.00 | 81 | 1008.9 |
| 20260506101547 | 57 | 33 | 0.9 | 3.5 | 0.00 | 0.01 | 0.00 | 82 | 1008.7 |
| 20260506100045 | 58 | 37 | 1.7 | 5.2 | 0.00 | 0.01 | 0.00 | 81 | 1008.6 |
| 20260506094545 | 58 | 42 | 1.7 | 5.2 | 0.00 | 0.01 | 0.00 | 81 | 1008.6 |
| 20260506093041 | 58 | 29 | 1.7 | 3.5 | 0.00 | 0.01 | 0.00 | 80 | 1008.5 |
| 20260506091554 | 58 | 13 | 1.7 | 4.3 | 0.00 | 0.01 | 0.00 | 80 | 1008.5 |
| 20260506090056 | 58 | 21 | 1.7 | 5.2 | 0.00 | 0.01 | 0.00 | 79 | 1008.6 |
| 20260506084551 | 58 | 33 | 2.6 | 3.5 | 0.00 | 0.01 | 0.00 | 79 | 1008.6 |
| 20260506083047 | 58 | 22 | 1.7 | 3.5 | 0.00 | 0.01 | 0.00 | 78 | 1008.6 |
| 20260506081543 | 59 | 25 | 2.6 | 4.3 | 0.00 | 0.01 | 0.00 | 76 | 1008.8 |
| 20260506073048 | 61 | 29 | 3.5 | 7.0 | 0.00 | 0.01 | 0.00 | 72 | 1008.8 |
| 20260506071549 | 61 | 25 | 1.7 | 7.8 | 0.00 | 0.01 | 0.00 | 71 | 1008.9 |
| 20260506061544 | 62 | 0 | 2.6 | 4.3 | 0.00 | 0.01 | 0.00 | 68 | 1008.4 |
| 20260506044552 | 63 | 20 | 0.9 | 4.3 | 0.00 | 0.01 | 0.00 | 65 | 1008.9 |
| 20260506043047 | 62 | 0 | 0.0 | 3.5 | 0.00 | 0.01 | 0.00 | 65 | 1008.8 |
| 20260506041547 | 62 | 0 | 0.9 | 3.5 | 0.00 | 0.01 | 0.00 | 66 | 1008.9 |